Wind_Speed
12 11 11 13 18 23 24 24 25 25 26 28 27 24 19 14 14 12 12 16 17 16 17 15 9 7 10 16 21 25 27 28 27 26 24 23 24 24 24 25 26 28 30 32 30 28 28 30 33 33 30 26 23 22 20 19 22 23 22 20 20 20 21 21 21 22 21 20 19 18 17 18 18 18 18 18 19 19 20 21 22 24 25 27 28 30 32
9 8 9 11 15 19 23 26 26 25 27 28 27 25 20 16 14 9 7 13 18 17 20 21 17 11 8 10 16 22 25 26 26 25 25 26 25 24 24 26 28 31 35 35 33 31 31 32 33 32 30 27 23 21 20 22 24 24 21 19 18 19 20 20 20 19 19 18 18 17 17 17 18 18 18 18 19 19 20 22 23 25 27 28 30 31 33
10 9 8 11 14 16 20 23 25 26 27 27 27 28 25 21 18 13 8 9 14 17 19 21 20 16 11 10 13 18 22 24 25 25 25 25 24 25 26 28 30 34 37 35 31 31 32 31 30 28 28 26 24 23 23 25 25 22 20 19 18 19 19 18 18 18 18 18 17 16 16 16 16 17 17 18 19 20 21 23 25 26 28 29 30 32 34
12 12 9 9 11 14 18 22 25 27 27 26 28 28 26 24 21 18 14 13 14 16 16 18 20 18 14 13 13 15 19 22 25 26 24 22 22 25 27 29 33 37 37 33 30 28 26 24 23 24 26 27 27 26 25 24 22 20 19 19 19 18 18 17 17 17 17 16 15 14 14 15 15 16 17 18 19 21 23 25 26 27 28 30 31 32 33
12 13 11 9 9 11 16 22 25 26 26 25 24 24 25 24 21 20 18 16 15 17 18 19 20 18 17 17 15 16 19 22 25 25 23 22 22 23 26 32 35 35 30 26 24 22 19 19 20 23 26 27 28 26 24 20 19 20 20 20 19 18 17 17 16 16 15 14 13 13 13 14 15 16 17 19 20 22 23 25 26 27 29 30 30 31 31
11 12 11 9 10 9 10 17 23 26 26 25 23 24 27 27 24 21 19 16 16 17 18 19 18 17 19 19 17 17 19 22 25 24 23 23 22 22 26 30 30 25 19 16 17 18 18 19 20 21 22 23 22 21 19 19 20 21 21 20 19 17 16 15 15 14 13 12 11 11 12 13 14 16 17 19 20 22 23 24 26 27 28 28 28 28 28
11 12 12 10 9 8 6 13 24 28 28 28 27 26 27 28 27 25 22 20 18 14 12 14 14 13 16 19 19 18 19 21 24 26 25 22 22 24 25 23 21 19 16 14 15 16 16 16 17 17 16 15 15 15 17 19 21 21 21 19 17 16 14 13 13 12 11 10 10 10 11 12 14 15 17 18 20 21 22 23 24 25 25 25 24 23 22
11 13 14 9 5 5 5 10 22 29 29 28 30 29 28 26 26 25 24 24 23 19 13 11 11 11 13 16 17 18 19 19 20 21 20 20 22 24 22 18 17 18 17 15 15 14 14 13 11 10 10 9 11 14 17 20 20 20 19 17 15 14 13 12 11 10 9 9 9 10 11 12 14 15 17 18 19 20 21 21 21 21 20 19 18 17 16
12 15 15 10 4 4 6 8 17 28 29 26 27 27 25 23 23 25 26 26 25 24 20 15 11 10 12 16 19 19 19 18 17 16 16 19 22 21 19 18 18 18 17 16 15 14 13 11 10 8 6 7 10 14 17 18 18 17 16 15 14 12 11 10 9 8 7 8 8 9 11 12 14 15 17 18 18 18 18 17 17 16 14 12 12 12 12
13 15 14 10 6 6 6 4 9 20 26 26 25 23 21 22 24 25 27 27 26 25 23 18 14 11 12 16 20 22 22 22 23 23 22 22 22 20 20 21 19 17 16 15 15 14 12 11 10 8 7 7 10 13 15 16 15 15 14 13 11 10 9 8 7 6 7 7 8 10 11 13 14 15 15 15 15 15 14 12 11 10 9 8 9 10 11
14 15 13 10 8 7 6 4 3 11 20 22 22 19 19 23 25 25 26 27 26 25 23 20 17 14 13 14 18 24 26 26 28 30 29 27 24 23 23 21 18 16 15 15 15 14 12 11 10 9 8 9 11 13 14 15 14 13 12 11 10 9 7 6 6 6 7 8 9 11 12 12 12 12 12 11 11 9 8 7 6 6 7 8 9 10 11
15 15 13 11 9 8 9 5 2 5 13 17 17 14 15 22 25 25 26 26 25 23 22 21 20 16 13 13 16 23 27 29 32 32 29 27 27 26 24 21 18 17 16 16 16 14 12 11 10 9 10 11 12 14 14 14 14 14 13 12 10 7 5 5 6 8 9 10 10 11 10 10 9 8 7 6 5 4 4 4 5 7 8 9 10 11 12
17 17 15 10 7 9 12 9 3 3 10 16 16 12 12 18 23 24 25 26 25 24 23 21 20 18 15 14 16 22 28 32 33 31 27 26 26 23 21 20 19 17 16 15 13 12 10 10 9 10 11 11 12 13 13 14 14 14 13 11 8 6 6 8 9 10 10 9 8 7 7 6 5 4 3 2 3 4 5 6 7 8 9 10 11 12 12
18 18 16 11 7 9 13 11 6 6 10 13 13 12 13 18 24 25 26 27 27 26 25 23 22 20 18 16 17 23 30 34 34 33 31 30 28 25 23 22 20 17 14 12 10 8 8 9 10 12 12 12 12 12 12 12 12 11 11 9 7 7 7 8 8 8 7 6 4 3 2 1 1 2 3 5 6 6 7 9 10 11 11 12 12 13 14
17 17 16 10 6 8 15 14 10 10 11 11 11 11 12 17 24 26 26 27 27 27 28 27 25 24 21 18 17 23 30 33 33 32 32 31 29 27 25 23 19 16 14 12 9 8 8 10 12 13 13 12 12 11 10 10 10 9 9 7 6 6 6 6 6 5 4 2 1 1 2 3 4 6 7 8 8 9 10 11 12 12 12 13 14 15 16
19 17 16 12 7 7 12 14 13 13 13 11 11 12 11 14 21 25 27 27 28 29 31 31 28 26 24 21 21 24 29 32 32 32 32 31 28 26 24 22 19 16 14 13 11 9 10 12 13 13 13 12 11 10 10 10 10 9 7 6 5 5 5 5 4 3 2 2 4 5 6 7 8 9 9 10 11 11 12 12 12 12 13 14 15 16 17
22 18 14 13 13 10 10 12 14 14 14 14 13 13 12 13 17 22 26 27 28 29 30 30 29 28 26 24 24 26 29 32 33 33 33 30 27 26 25 22 19 17 15 14 13 13 14 14 14 13 13 13 12 12 12 11 10 9 6 5 5 5 5 4 3 3 4 6 7 8 9 10 11 11 12 12 12 12 12 12 12 12 13 14 15 16 17
24 21 16 16 18 15 11 12 15 16 16 17 16 14 13 13 14 18 22 25 26 27 27 27 27 27 26 26 28 29 30 33 34 34 33 30 28 26 25 23 20 19 17 16 15 15 15 15 15 15 14 14 14 13 13 11 9 7 5 5 5 5 5 5 5 7 8 9 10 11 12 12 13 13 12 12 12 11 11 11 12 12 13 14 15 16 16
20 21 19 19 19 17 13 12 13 14 15 17 18 17 15 13 14 15 17 19 22 25 25 25 24 24 24 27 30 31 31 32 35 36 33 31 29 26 23 21 20 19 18 17 17 17 17 16 16 16 15 15 14 13 12 10 7 6 5 6 6 6 6 7 8 10 11 12 12 13 13 14 13 12 12 11 11 10 10 11 11 12 13 13 14 14 15
18 18 20 19 16 14 14 12 11 12 13 15 16 16 15 14 13 14 15 17 19 22 24 24 22 21 25 28 30 31 32 33 35 35 32 30 29 26 23 22 20 19 18 18 19 19 18 18 18 17 16 14 13 12 10 8 6 6 7 8 8 8 9 10 12 13 14 14 14 14 14 13 12 11 11 10 10 9 10 10 11 12 12 12 12 13 14
20 18 18 16 13 13 14 14 13 11 10 12 14 14 14 13 12 12 13 15 17 19 22 23 21 21 25 29 30 30 32 34 35 35 33 30 27 25 24 22 20 19 19 19 20 20 20 19 18 17 15 14 13 11 9 8 7 8 9 10 10 11 12 13 14 15 15 16 15 15 14 12 11 10 9 9 9 9 9 9 10 10 10 11 11 12 13
19 18 18 16 15 16 16 16 15 12 9 10 12 13 12 12 11 11 11 12 15 18 21 21 20 21 27 31 30 29 31 35 36 36 35 31 27 26 25 23 22 21 21 20 21 21 21 20 17 15 14 14 12 11 9 8 10 11 11 12 13 14 15 15 16 17 17 16 15 14 12 11 10 9 9 8 8 8 8 9 9 9 10 10 11 12 13
16 18 20 18 17 17 16 16 15 12 9 9 11 12 11 10 9 9 8 8 12 17 21 21 20 23 29 32 31 30 33 35 35 34 33 30 28 27 26 24 24 23 22 21 21 21 20 18 16 15 15 13 11 10 9 10 12 13 14 15 16 16 17 17 18 18 17 16 14 12 11 10 9 9 8 8 8 7 8 8 9 9 10 10 11 12 13
17 17 19 18 17 17 16 14 13 10 8 8 9 10 11 11 9 8 8 8 9 13 18 21 23 27 32 33 32 33 34 33 31 31 30 28 26 26 25 24 23 22 21 21 21 20 18 16 15 15 14 12 11 10 11 13 14 16 17 18 18 18 19 19 18 17 16 14 13 11 10 9 9 8 8 8 8 8 8 8 9 9 10 10 11 12 13
16 15 16 16 16 16 15 13 12 10 9 9 9 10 11 12 11 10 9 10 10 11 13 16 21 28 32 33 34 36 36 34 32 31 30 29 27 26 25 24 22 20 19 19 19 18 17 16 15 14 13 11 11 12 14 15 17 18 20 20 20 20 20 19 18 16 15 13 12 11 10 9 9 8 8 8 8 8 8 8 8 9 10 10 12 12 13
15 14 14 14 14 14 14 13 12 12 11 11 11 12 12 13 14 13 11 11 11 11 12 15 21 27 32 33 36 39 40 38 36 32 30 30 29 27 26 24 22 20 19 18 18 17 16 15 14 12 11 12 13 15 16 18 19 21 21 21 21 21 20 18 17 15 14 13 11 11 10 10 9 9 8 8 8 7 8 8 9 9 10 11 11 12 13
14 13 13 13 14 14 14 13 13 12 12 12 13 14 14 14 15 15 14 14 14 13 14 17 22 27 31 33 34 37 40 40 38 34 32 31 30 28 27 25 23 20 18 17 16 15 15 14 13 12 12 14 16 18 19 20 21 22 22 22 21 20 18 17 16 15 14 13 12 11 10 10 9 9 8 8 7 7 8 8 9 9 10 10 11 12 12
13 13 14 14 15 15 15 15 14 12 12 12 13 15 15 15 15 16 16 17 17 17 18 21 24 26 30 32 31 34 38 40 38 36 34 32 30 29 28 26 24 21 17 14 13 13 14 14 12 12 14 17 19 20 21 22 23 23 23 22 21 19 18 16 15 15 14 13 12 11 10 10 9 9 8 8 7 7 8 8 9 9 10 10 11 11 12
12 13 14 14 15 15 15 15 15 14 13 13 14 15 16 16 16 16 17 18 19 20 21 24 26 27 27 26 27 33 38 37 35 35 34 32 31 30 29 28 24 20 16 13 12 12 13 13 12 14 17 19 21 22 22 23 24 23 23 21 20 19 17 17 16 15 14 13 12 11 10 10 9 9 8 8 8 8 8 8 8 9 9 10 10 11 11
11 11 13 13 14 14 14 14 15 15 15 15 15 16 17 17 17 17 17 18 20 21 23 25 26 25 23 21 24 31 36 34 31 31 30 29 28 27 28 27 24 19 16 13 12 12 13 13 13 16 19 21 22 23 24 24 24 23 22 21 20 18 18 17 16 15 14 13 12 11 10 10 9 9 8 8 7 7 7 7 7 8 8 9 9 10 10
9 10 11 11 11 12 13 13 14 14 15 15 16 17 18 18 18 18 18 19 21 24 26 25 23 21 21 21 24 29 32 31 28 27 26 24 24 26 27 26 22 17 15 13 12 13 14 13 15 19 21 22 23 24 25 25 24 23 22 20 19 18 17 16 16 15 14 13 12 11 10 10 9 8 7 7 6 6 6 5 6 6 7 8 8 9 9
7 9 10 11 11 10 11 11 13 13 13 14 16 18 19 20 20 19 19 20 22 25 26 23 20 19 22 25 27 28 30 28 25 24 22 20 20 24 27 26 21 18 16 13 13 13 13 14 17 21 23 23 24 25 25 25 24 23 21 20 19 18 17 16 15 15 14 13 12 10 9 8 7 6 5 4 4 4 4 4 5 5 6 6 7 7 8
7 8 10 11 12 11 10 11 12 13 12 13 15 18 21 22 21 20 20 21 24 26 25 22 21 21 23 26 27 27 27 26 25 23 22 20 20 25 28 26 22 20 18 15 13 14 14 16 20 22 24 24 25 25 26 25 24 22 21 20 19 18 17 16 15 14 13 12 11 9 8 7 5 4 3 2 2 2 3 3 4 4 5 5 6 6 6
6 7 8 10 11 12 11 10 11 11 12 13 15 19 22 23 22 22 21 22 25 26 24 23 24 25 24 26 28 28 27 26 25 24 22 22 24 27 29 26 24 22 19 16 15 15 17 19 21 23 25 26 26 26 26 25 24 23 22 20 19 18 17 16 15 14 12 11 9 8 7 5 4 3 2 1 1 1 2 2 3 4 4 5 6 6 6
5 6 7 7 8 10 9 8 9 10 11 13 15 19 22 22 22 22 22 23 25 27 25 25 26 27 27 28 28 27 25 24 22 21 22 24 28 30 29 27 24 22 19 17 16 17 19 22 23 24 26 27 27 26 26 25 24 23 22 21 20 18 17 16 14 13 11 10 8 7 6 5 4 3 2 2 2 2 3 3 4 4 4 5 6 6 6
7 6 7 7 7 7 7 7 9 10 11 13 16 18 20 22 23 25 26 26 27 28 27 26 26 29 30 30 27 25 24 22 20 21 24 28 30 28 26 24 22 19 17 17 17 19 22 25 25 25 27 28 28 27 26 26 25 24 23 21 20 18 17 15 13 12 10 9 8 7 6 5 4 4 4 4 4 4 5 5 5 5 5 6 6 7 7
8 7 8 8 7 6 6 8 10 10 11 13 15 18 19 21 23 26 28 28 28 28 27 26 26 26 27 27 26 26 24 22 22 24 28 29 28 26 25 23 20 18 17 17 18 21 24 26 26 26 28 28 28 27 26 26 25 24 22 21 19 17 16 14 13 11 10 9 8 7 6 6 6 6 6 6 6 6 7 7 7 7 7 7 7 7 8
7 7 8 10 9 7 6 8 10 11 11 12 15 18 20 22 24 26 27 27 27 26 26 25 24 23 24 26 26 25 23 23 25 28 28 26 25 24 23 20 18 17 16 17 20 23 26 26 27 28 29 28 28 27 26 25 25 23 22 20 18 17 15 14 13 12 10 10 9 8 8 8 8 8 8 8 8 8 9 9 9 9 9 8 8 9 9
5 5 7 9 9 8 7 8 10 12 12 13 15 17 19 20 23 25 26 26 25 24 23 23 24 24 26 27 28 26 26 27 28 27 26 24 23 22 20 18 17 17 17 18 22 25 26 26 27 29 29 28 27 26 26 25 24 23 21 20 18 17 15 14 13 12 11 11 11 10 10 10 10 10 10 10 10 10 10 11 11 11 10 10 10 11 11
4 5 6 8 9 9 9 9 11 13 14 15 16 17 18 19 22 24 24 25 26 25 25 26 27 27 26 27 27 28 28 27 27 26 26 25 22 20 19 19 20 19 19 21 24 26 26 27 28 29 28 27 27 26 26 25 24 23 21 20 18 16 15 14 14 13 13 13 13 12 12 12 12 12 12 12 12 12 12 12 12 12 12 12 12 12 12
5 5 6 8 9 10 10 10 12 14 16 18 18 17 18 20 22 23 23 24 26 27 28 27 26 25 25 26 27 26 24 24 25 26 25 22 19 19 21 22 21 20 20 22 26 27 26 27 29 29 28 27 26 26 26 25 23 22 21 19 18 17 16 15 14 14 14 14 14 14 14 13 13 13 13 13 13 13 13 14 14 14 14 15 15 15 15
7 7 7 8 9 10 11 12 13 15 17 20 21 20 19 20 22 23 24 25 26 26 25 25 24 24 24 23 23 21 21 21 24 25 22 19 19 20 22 21 20 19 19 22 26 27 27 28 29 29 28 27 27 26 25 24 23 22 20 19 18 17 16 16 16 15 15 15 15 15 15 14 14 15 15 15 15 15 15 15 16 16 16 17 17 18 18
7 8 8 9 10 11 12 13 15 15 16 19 22 22 23 24 24 25 26 27 26 24 24 26 27 26 25 24 24 23 21 21 23 24 22 21 21 21 21 20 19 18 17 20 24 26 27 28 29 29 28 28 27 26 25 24 23 21 20 19 18 18 18 17 17 17 17 16 16 16 16 16 16 16 16 17 17 17 17 18 18 18 18 19 20 20 21
8 9 9 9 10 11 12 13 15 16 17 19 21 22 24 26 28 28 27 26 26 26 26 28 30 30 29 28 27 24 21 21 24 25 25 24 24 23 21 20 18 17 17 20 23 25 26 28 29 29 29 28 27 26 25 24 22 21 20 20 19 19 19 19 18 18 18 17 17 17 17 17 18 18 18 18 19 19 19 19 19 20 20 20 21 22 22
9 9 9 10 10 11 11 12 15 17 18 19 20 21 22 26 28 28 26 25 24 26 27 28 29 29 27 25 22 20 20 21 24 24 24 23 22 21 20 19 18 18 19 21 23 24 26 28 28 28 28 28 26 25 25 24 22 22 21 20 20 20 20 19 19 18 18 18 18 19 19 19 19 19 19 20 20 20 21 21 21 21 21 21 22 22 23
7 8 9 9 11 11 11 11 15 18 19 20 20 21 22 24 27 28 26 24 23 25 27 27 26 25 24 23 22 22 23 24 23 22 20 19 19 19 19 19 18 18 20 23 24 25 27 28 28 28 28 27 26 25 24 23 22 22 21 21 20 20 20 20 19 19 19 20 20 20 21 21 21 21 22 22 22 22 23 22 22 22 23 23 23 24 24
8 8 9 11 13 13 11 11 13 16 18 20 21 21 22 23 25 26 27 27 25 24 26 27 26 24 24 25 25 25 25 25 24 22 20 19 18 18 18 18 19 20 22 24 25 27 28 28 28 28 28 27 26 25 24 23 23 22 21 21 21 21 21 20 20 20 21 21 22 22 23 23 23 23 24 24 24 24 24 24 24 24 25 25 26 26 26
6 8 10 12 13 12 10 9 10 12 14 18 20 22 23 24 24 25 27 29 27 24 25 27 28 26 26 26 25 24 24 24 23 22 21 20 19 18 18 19 20 21 23 25 26 26 27 27 28 28 28 27 26 26 25 24 24 23 22 22 21 21 21 21 21 21 22 22 23 23 24 24 24 25 25 26 26 26 26 27 26 26 27 27 28 28 29
5 7 9 10 11 11 10 8 7 8 12 15 17 19 22 25 27 29 29 29 28 27 27 27 27 26 26 25 24 23 21 20 20 20 20 20 19 19 20 20 21 23 24 25 26 26 27 27 28 29 28 27 27 26 25 24 23 22 22 22 22 21 21 21 21 21 22 23 23 24 24 25 25 26 26 27 28 28 28 29 29 29 29 29 30 31 32
3 5 7 9 10 11 10 8 6 7 11 14 15 15 17 21 25 28 29 29 28 29 30 29 27 26 25 25 24 23 22 21 21 21 21 20 19 19 19 21 22 24 25 25 26 27 28 29 29 29 28 27 26 25 24 23 23 22 22 22 21 21 21 21 21 21 22 23 23 24 25 25 26 27 27 28 28 29 29 30 31 31 32 32 33 33 34
3 5 8 10 11 12 12 10 8 8 11 14 15 16 16 17 19 21 25 27 29 30 30 28 26 25 25 24 23 22 22 22 21 21 21 21 19 19 19 21 22 24 25 26 27 28 28 28 28 27 26 26 25 23 22 22 22 22 22 21 21 21 21 21 21 22 23 23 24 25 25 26 26 27 27 28 28 29 29 30 30 31 32 32 33 34 34
5 8 10 11 12 13 14 13 12 12 13 14 15 16 17 18 19 20 22 27 31 32 30 26 23 22 21 21 21 20 20 19 19 19 20 21 20 19 20 21 23 25 26 27 28 28 28 27 27 26 25 24 23 22 22 22 23 22 22 22 21 21 21 22 22 22 23 24 24 25 26 26 26 26 26 26 27 27 28 29 29 30 30 31 31 32 33
Wind_Direction
190 188 184 183 192 198 200 202 205 206 207 209 211 215 217 214 215 215 202 200 206 214 225 236 242 230 218 218 220 216 209 200 194 193 196 197 197 199 200 200 201 204 205 200 196 198 201 202 205 210 217 225 234 244 256 267 272 272 271 266 256 244 233 228 227 228 231 234 238 243 248 252 255 259 263 270 274 277 281 285 289 293 295 297 298 298 299
190 186 186 187 195 202 205 207 209 209 209 210 210 211 211 209 212 215 202 202 205 210 222 233 239 234 225 224 224 223 217 205 191 186 190 192 194 196 196 197 201 204 203 200 198 198 198 201 208 212 217 226 237 247 257 265 268 268 265 256 244 233 227 225 226 229 232 235 239 243 248 251 256 261 267 272 276 281 285 290 293 295 297 299 299 300 302
193 187 185 192 200 206 209 212 213 213 212 211 210 210 210 210 213 216 210 199 202 207 214 221 228 231 232 233 225 221 221 211 193 186 190 192 192 195 197 201 202 200 198 199 201 202 201 206 213 217 221 229 238 246 253 260 262 260 252 242 232 226 224 225 228 232 235 238 240 243 248 253 259 265 271 276 281 286 290 293 296 297 299 300 301 303 304
192 189 189 192 199 210 216 217 214 212 212 211 211 211 211 210 210 212 213 211 213 216 214 215 222 230 240 244 232 217 215 210 199 192 191 193 196 198 201 204 203 200 199 197 195 199 206 213 217 219 222 231 239 246 253 257 254 247 238 230 224 222 222 225 229 234 237 239 242 246 252 259 265 271 277 282 287 291 293 295 298 299 301 303 304 305 305
187 189 197 195 192 206 218 218 214 212 212 212 211 211 211 210 208 210 214 216 218 218 213 211 216 225 236 241 232 218 211 207 201 194 192 197 202 203 206 206 203 204 205 199 191 197 208 215 218 221 226 235 244 250 253 249 240 233 228 223 220 221 223 227 231 235 238 242 246 252 259 266 273 278 283 287 290 293 295 297 299 302 304 305 306 306 306
187 184 189 192 199 209 211 211 212 212 212 210 208 209 213 213 211 211 211 213 219 219 212 211 216 223 229 232 225 214 209 204 198 193 195 201 201 203 211 210 203 201 205 198 192 200 212 224 232 237 240 244 246 246 242 232 225 223 221 219 220 222 226 231 235 238 242 246 253 260 267 274 279 284 287 290 292 294 297 300 303 306 307 307 307 308 309
189 181 184 190 205 213 206 207 211 212 213 212 211 214 218 215 213 213 213 213 220 225 215 210 214 215 216 220 217 209 203 200 197 192 190 192 194 201 210 210 201 201 210 212 208 214 228 241 247 250 251 247 239 230 224 219 217 217 217 217 219 223 229 235 239 243 247 252 260 268 275 280 284 287 290 293 296 299 303 306 307 308 309 310 312 314 317
185 183 193 197 200 217 238 225 210 208 211 213 214 218 220 215 211 211 213 216 222 230 230 219 213 205 200 203 204 203 199 196 195 190 182 183 195 203 206 204 203 208 215 220 223 233 247 251 249 250 252 243 226 216 213 213 213 213 214 215 219 225 230 234 239 244 250 258 268 275 280 284 287 291 295 298 302 305 307 309 310 311 314 318 321 326 333
192 194 200 205 215 230 247 241 213 207 209 210 212 217 218 213 207 205 207 212 219 227 235 235 225 210 198 193 191 192 190 186 185 180 174 183 195 199 201 203 206 209 213 220 232 243 246 240 235 238 244 237 222 214 210 210 210 211 213 215 219 222 226 230 236 244 254 264 273 279 285 290 293 297 300 303 306 308 310 313 316 320 325 332 340 350 358
202 205 203 206 221 218 206 210 210 208 209 210 209 213 216 210 202 199 203 208 214 222 229 235 230 215 208 202 193 187 183 179 175 169 169 180 190 195 200 204 204 208 218 231 241 241 233 225 224 226 230 227 218 213 210 209 209 212 214 215 216 218 220 228 236 247 258 270 280 288 293 297 299 302 305 307 311 313 317 322 328 334 345 358 7 10 11
202 210 210 209 213 204 183 159 168 198 207 209 207 212 220 213 202 198 203 208 214 219 225 232 233 225 222 217 200 189 184 177 170 167 169 178 186 192 197 203 210 219 229 236 236 228 221 219 221 221 219 217 212 210 210 212 212 212 212 209 207 207 213 225 243 262 276 285 292 294 296 298 301 306 311 315 319 324 331 342 353 7 17 22 21 18 15
206 212 217 215 212 207 201 191 140 180 198 198 195 203 218 213 205 204 206 209 212 214 220 229 233 231 233 228 208 193 184 176 169 167 171 177 183 188 196 205 215 222 224 224 222 218 215 216 219 217 210 210 212 211 211 214 215 212 211 208 203 205 223 252 273 283 287 289 290 291 294 300 306 313 321 327 337 353 14 30 38 40 37 31 27 23 19
210 211 216 215 206 204 207 213 243 218 188 184 187 196 203 205 208 209 208 210 212 211 213 221 226 226 227 227 214 197 184 176 170 167 169 177 185 193 204 212 217 215 210 208 209 209 208 207 205 200 196 200 208 210 212 217 217 215 216 220 221 229 250 265 271 274 276 280 284 289 297 307 316 329 348 23 54 65 70 68 62 55 48 43 39 35 32
210 212 217 219 207 194 193 201 233 228 186 179 192 203 199 199 205 207 207 210 212 210 209 213 217 219 218 219 217 201 185 177 173 169 171 182 192 198 202 207 210 208 204 202 198 191 190 190 187 181 181 188 197 201 205 209 208 208 210 216 221 228 239 251 258 264 270 274 282 292 307 328 32 83 92 96 95 92 87 80 72 66 61 57 53 49 46
207 210 216 219 218 197 186 191 219 222 195 184 194 204 202 197 197 199 202 204 206 206 207 207 210 215 216 212 210 202 190 181 176 174 177 187 196 198 199 202 204 202 201 198 191 186 190 191 185 177 177 184 189 189 192 195 195 198 200 203 211 222 237 249 254 258 260 255 223 131 125 124 119 115 113 110 106 101 93 86 79 74 70 64 59 54 49
203 207 214 215 216 204 191 198 219 222 211 205 202 202 203 197 194 195 197 200 202 204 206 207 208 213 215 207 199 200 195 185 179 179 183 189 194 195 197 200 202 202 199 192 189 198 204 198 189 183 181 181 182 183 188 192 197 201 203 206 220 233 242 243 237 227 201 153 137 134 133 129 125 123 122 117 110 102 95 89 83 77 70 64 58 53 48
211 213 215 213 214 213 206 210 218 217 216 219 216 211 212 206 201 200 200 202 204 205 207 211 213 215 213 203 193 196 194 186 182 186 188 187 188 192 196 201 202 199 194 191 195 206 208 199 190 185 181 178 180 187 193 198 202 205 206 214 225 229 224 213 194 169 151 143 139 137 135 132 129 127 124 117 109 102 95 88 82 75 68 61 56 51 46
216 217 215 215 218 220 218 222 224 220 218 223 225 225 226 222 214 209 208 208 208 208 209 212 214 216 213 200 191 191 191 187 185 188 188 185 186 193 199 201 198 194 193 195 198 203 203 195 186 182 182 184 187 193 198 201 203 203 208 216 215 206 193 177 161 150 145 143 142 140 138 136 131 127 122 115 107 100 93 86 79 72 64 58 54 49 45
214 216 216 216 219 219 217 225 230 226 223 228 231 233 235 235 230 223 218 216 214 212 213 215 214 212 207 199 191 189 190 190 188 187 187 188 190 194 198 196 192 192 197 200 199 196 193 189 183 183 187 192 195 197 199 198 199 204 209 207 196 182 170 158 151 148 147 146 145 143 140 135 131 127 120 113 104 97 90 83 75 69 62 56 52 47 45
214 216 217 213 207 206 214 227 236 231 227 227 230 235 240 243 242 235 227 223 220 216 214 215 213 205 198 197 193 189 189 192 190 186 186 190 192 190 189 188 189 194 199 200 196 190 185 184 186 188 191 195 200 200 196 192 196 204 202 192 179 167 158 153 151 150 149 147 146 143 139 134 131 126 119 111 102 95 87 79 72 66 61 57 52 48 45
221 221 218 209 201 205 218 230 238 239 232 224 224 231 237 240 242 240 233 229 226 219 213 212 209 199 193 193 193 190 190 191 188 184 187 192 191 185 183 185 189 192 194 192 189 185 182 184 190 193 195 198 200 195 189 187 192 195 190 178 168 160 155 153 153 152 150 148 146 142 138 134 129 123 116 108 99 91 83 76 71 66 61 57 53 49 46
225 224 217 208 208 216 222 227 233 236 228 217 218 226 233 235 235 235 235 234 228 218 210 206 201 193 189 190 192 192 191 189 187 186 188 189 185 182 182 184 184 184 185 184 183 183 183 186 192 197 199 198 194 187 181 184 187 185 177 168 162 158 156 155 154 153 151 148 145 141 138 134 127 120 111 102 94 88 82 77 72 66 60 56 53 50 46
218 222 219 215 218 222 222 225 231 231 219 210 213 220 227 230 227 224 225 227 225 215 203 193 187 184 186 189 191 190 190 189 188 187 186 184 183 182 182 181 179 178 178 178 180 183 186 189 193 195 193 189 183 178 177 182 183 177 170 163 160 158 157 156 155 153 150 146 142 140 138 133 125 116 108 99 92 87 82 77 71 65 60 56 53 50 46
217 221 220 218 221 224 222 221 224 220 213 212 212 215 220 222 220 217 209 203 211 210 198 186 178 177 183 189 189 187 188 189 186 182 179 179 181 182 179 176 176 175 176 179 181 184 186 187 187 187 183 177 175 175 177 180 180 172 165 161 159 158 156 154 153 151 147 144 142 138 134 128 121 114 108 99 93 87 80 75 70 64 59 54 51 49 45
213 213 212 211 214 217 217 217 218 215 215 216 212 213 218 218 216 216 210 202 199 198 197 192 181 177 181 186 187 187 189 187 180 177 176 177 179 179 175 173 174 174 176 180 182 181 181 181 181 180 176 172 173 175 175 176 174 168 162 159 158 157 155 152 150 149 146 143 141 135 131 126 119 113 107 100 94 88 79 73 67 61 55 52 49 47 45
204 205 205 206 210 212 216 221 222 220 218 215 211 212 215 217 218 217 214 212 204 192 190 192 185 179 180 184 187 191 191 184 175 175 179 178 177 176 174 173 175 175 175 178 179 178 178 178 177 176 174 173 174 174 172 172 169 164 160 158 157 156 154 151 150 149 145 141 139 134 130 125 119 113 108 102 95 87 77 70 63 58 53 50 48 47 45
207 210 210 211 213 215 219 224 223 220 216 212 211 212 211 215 218 216 213 213 208 195 184 182 181 180 181 183 190 196 192 181 173 175 180 179 177 177 178 177 176 174 173 175 179 181 180 178 177 177 177 175 173 170 169 168 166 161 159 157 156 154 153 152 150 148 145 142 138 135 131 127 121 116 111 104 97 87 78 70 64 59 54 49 46 45 43
211 216 218 220 221 220 220 220 220 220 215 210 209 209 209 211 212 213 213 213 207 199 188 180 179 182 183 185 193 198 192 181 175 176 179 179 178 179 180 178 175 173 174 177 182 184 182 179 178 179 177 173 169 168 167 166 163 160 159 157 155 154 153 152 150 147 145 143 140 137 134 129 124 119 115 109 101 92 84 76 69 63 56 49 45 43 40
208 215 220 224 226 227 226 225 224 222 217 212 209 206 205 208 209 209 211 209 205 200 190 181 183 188 189 191 197 197 192 186 182 178 176 176 178 181 181 179 176 176 177 178 180 184 183 181 180 179 175 170 167 167 167 165 163 161 159 157 156 156 155 153 149 147 145 144 142 140 136 131 127 124 119 113 104 96 89 81 73 67 61 53 47 43 39
205 214 222 226 229 232 234 234 232 228 222 218 215 209 207 208 209 209 209 206 200 194 186 184 188 192 191 192 196 195 191 188 182 175 173 175 178 181 183 183 181 181 180 177 177 181 183 183 181 177 172 169 168 167 167 165 164 162 161 159 158 158 156 153 150 148 147 147 145 142 139 134 131 127 121 114 108 100 92 84 75 68 61 54 47 42 39
205 215 224 229 233 236 237 236 234 231 226 222 219 215 212 210 208 208 208 204 195 187 185 188 194 193 185 181 184 189 191 188 178 171 170 173 176 181 184 184 182 182 180 176 175 179 184 185 181 175 171 169 168 168 167 166 165 164 162 162 160 158 157 155 153 151 151 150 148 146 143 138 134 129 123 117 112 103 93 82 72 62 54 49 43 38 35
210 216 220 226 230 233 236 234 227 223 223 223 219 214 211 210 209 207 207 202 194 187 187 191 194 189 181 175 175 181 186 184 175 169 171 172 175 181 182 180 177 180 180 175 175 182 188 187 180 174 171 170 169 169 168 168 167 165 163 162 162 160 159 158 157 155 155 154 152 151 149 144 139 136 131 123 113 102 88 74 62 52 45 39 34 30 28
222 223 225 229 229 228 229 228 222 219 220 221 216 209 206 205 204 203 202 199 192 187 188 189 185 178 172 169 168 171 175 174 171 172 177 179 179 180 179 177 177 179 178 174 177 185 190 186 180 176 173 171 170 170 170 169 167 165 164 164 164 163 162 162 161 160 161 161 161 160 159 156 154 151 144 132 111 90 71 58 48 39 32 27 21 18 17
233 234 234 233 231 229 228 224 220 220 219 215 209 203 199 199 199 197 195 192 188 187 188 186 182 176 171 168 166 166 169 171 173 176 180 181 179 177 176 177 179 179 177 178 183 189 189 184 180 178 176 173 172 171 171 171 169 167 166 166 167 166 166 167 167 166 167 169 171 171 171 171 173 173 172 167 123 40 23 22 20 14 10 7 4 1 1
253 244 237 231 225 224 226 223 217 215 213 208 202 196 192 194 193 187 181 181 184 183 182 181 180 176 171 168 167 167 170 173 176 178 181 181 178 177 178 180 181 181 180 182 187 190 187 182 180 180 178 174 172 172 173 173 172 170 169 169 170 170 171 172 172 174 177 180 182 185 187 191 198 209 227 248 280 308 320 330 338 341 343 343 343 344 346
253 244 234 225 217 217 223 219 208 201 198 198 196 192 189 188 183 176 175 178 180 179 181 185 184 174 166 167 171 173 172 174 179 182 182 180 178 178 181 184 186 185 182 184 189 191 187 182 181 181 178 175 173 174 176 177 176 174 172 172 173 174 176 177 179 182 187 190 195 200 205 213 225 241 256 272 283 293 299 304 310 317 321 323 325 328 331
240 234 223 214 209 211 216 211 199 190 186 188 189 187 185 181 175 174 177 180 178 177 180 185 184 174 167 169 174 174 172 175 181 182 179 178 179 181 184 188 188 184 181 187 193 192 187 182 181 180 178 176 176 177 179 180 180 177 174 175 177 178 180 183 186 190 195 201 208 216 223 233 244 254 262 270 278 284 287 290 294 298 303 307 310 314 318
228 223 214 210 207 204 203 202 195 185 179 179 180 180 180 178 175 176 179 181 180 178 179 181 182 180 176 173 172 172 174 177 178 177 176 177 180 183 187 189 186 181 182 189 194 192 187 183 181 180 178 178 179 180 182 184 183 179 177 179 181 184 186 190 194 198 204 210 217 225 234 244 253 259 263 266 271 275 278 281 285 289 293 298 302 305 308
218 206 201 205 206 201 196 199 196 187 179 175 173 173 174 174 172 174 177 180 182 183 185 185 183 178 173 169 168 170 172 173 172 174 176 177 179 183 186 185 182 182 185 190 192 191 189 185 182 181 180 179 181 184 187 188 186 183 182 184 187 190 194 198 202 207 213 219 225 231 238 246 253 258 260 263 267 271 275 278 282 285 289 292 295 298 301
218 196 184 191 198 197 194 196 196 190 184 177 172 172 175 173 168 168 172 177 179 180 181 180 175 169 167 170 171 171 170 171 171 173 176 178 182 187 189 186 185 188 190 190 190 190 189 186 184 182 181 181 184 187 190 191 190 189 187 189 193 197 201 205 209 214 221 227 233 237 242 248 252 255 258 260 264 269 273 276 280 284 287 289 291 293 295
227 205 184 183 190 193 193 194 195 193 188 181 176 178 182 178 172 172 175 177 177 176 173 170 169 169 171 173 173 171 171 173 174 175 180 187 194 198 195 193 194 196 195 191 189 189 188 187 186 184 183 184 187 190 192 194 194 193 192 194 198 203 208 213 217 222 227 233 237 241 246 251 255 258 261 263 266 269 272 275 279 282 285 286 287 289 290
233 219 203 195 193 195 197 195 194 194 191 184 180 181 182 178 176 178 178 175 176 176 171 166 168 173 177 178 176 176 179 181 180 181 187 197 202 200 198 197 201 204 201 194 191 189 189 188 188 187 186 187 190 192 194 196 196 196 197 200 204 208 214 218 222 226 231 235 239 243 248 253 258 262 265 268 270 272 274 276 279 281 282 284 285 286 287
229 224 218 209 202 200 201 197 194 194 193 188 185 185 182 177 176 178 178 177 180 185 184 179 178 181 185 186 184 185 189 191 190 188 189 190 191 192 196 200 205 208 205 198 193 192 191 190 190 189 190 190 192 194 196 198 198 199 202 206 210 215 219 222 225 228 232 236 240 245 250 254 258 262 265 268 271 273 275 277 279 281 282 283 284 285 286
226 226 227 223 215 208 202 197 195 195 193 191 190 189 184 180 181 186 188 188 190 190 188 184 182 181 181 182 184 188 195 197 194 191 191 190 188 190 196 201 204 206 204 199 196 194 194 193 193 193 193 193 195 196 198 199 201 203 207 212 216 221 225 228 231 233 236 239 243 246 250 254 257 260 263 267 269 271 273 276 278 280 282 283 284 285 286
225 223 224 224 221 215 206 198 196 196 194 193 194 191 185 183 185 189 192 194 193 190 186 185 183 182 181 182 185 189 194 195 194 194 197 199 198 200 204 208 211 210 204 198 196 196 196 196 196 196 196 197 198 199 200 202 205 209 213 217 222 226 230 234 237 240 243 245 247 250 253 256 258 260 263 265 267 268 271 273 275 278 281 282 284 285 285
226 224 219 212 211 213 209 202 199 198 196 195 195 193 188 184 183 184 187 191 191 188 186 186 186 185 185 185 183 183 186 190 193 195 198 200 203 206 208 211 216 215 206 199 196 197 199 199 199 199 200 201 201 202 204 207 211 216 220 224 228 232 237 240 244 247 249 251 253 254 256 258 260 262 264 265 267 269 271 273 276 278 281 282 284 284 285
229 225 211 201 205 212 212 201 195 196 196 195 195 194 192 188 184 182 183 185 186 185 187 188 190 191 189 186 184 186 189 191 192 192 192 195 199 202 204 208 212 212 206 201 200 200 200 200 200 201 202 203 203 205 208 213 217 221 225 228 232 236 240 243 247 251 254 257 259 260 262 264 265 267 267 269 270 272 274 276 278 280 282 283 285 286 286
222 214 203 200 206 210 204 193 188 189 191 193 194 194 193 191 185 181 183 187 189 189 189 191 192 193 192 189 189 192 196 197 199 201 204 207 210 213 215 217 215 210 205 202 202 202 202 201 201 202 203 204 206 209 213 216 219 223 226 230 233 237 241 246 250 254 258 261 264 265 267 268 269 270 271 272 273 274 275 277 279 280 281 283 284 285 285
218 207 200 200 199 192 184 185 190 187 184 185 188 191 192 190 186 185 189 195 195 191 188 189 192 193 193 193 194 196 198 200 205 210 215 217 219 221 223 223 219 212 206 202 201 201 201 201 202 202 204 206 209 213 216 219 222 225 228 232 235 239 244 248 253 257 260 263 265 266 268 269 270 271 272 273 275 276 278 279 280 281 281 281 282 282 282
225 197 182 180 178 174 175 183 191 182 177 178 180 182 186 188 188 189 193 196 194 190 188 191 194 194 194 196 198 196 195 197 202 207 213 217 219 221 224 222 216 210 206 202 200 200 201 202 203 205 207 210 214 217 220 223 226 230 233 236 240 244 248 252 256 259 262 264 266 267 268 270 271 273 275 277 278 280 282 283 284 284 285 284 284 284 284
189 172 169 172 176 176 177 182 183 175 174 179 181 181 182 186 191 195 198 198 196 192 191 192 195 199 203 206 205 201 198 200 204 208 214 219 222 226 227 223 214 208 205 203 201 201 203 205 207 209 213 216 219 222 225 229 232 235 239 242 246 249 253 257 260 263 265 267 268 270 271 273 274 276 279 281 283 285 287 288 289 290 290 290 289 288 288
191 179 176 180 184 184 184 187 188 183 179 180 183 186 188 190 194 199 202 201 198 195 192 192 197 204 211 216 216 213 212 213 216 219 223 226 229 232 230 223 214 209 206 204 203 204 205 208 211 215 219 222 226 229 232 235 238 242 245 249 253 256 258 261 263 265 268 270 271 273 275 276 278 281 283 285 288 290 292 293 293 293 293 293 292 291 290
Height
3026 3027 3029 3030 3032 3034 3037 3039 3040 3042 3045 3046 3048 3050 3053 3055 3055 3056 3058 3060 3062 3064 3065 3064 3066 3067 3068 3069 3070 3071 3072 3073 3075 3078 3080 3082 3084 3086 3089 3092 3095 3097 3098 3099 3101 3104 3107 3110 3112 3115 3117 3119 3120 3121 3122 3123 3123 3123 3123 3123 3123 3124 3124 3125 3126 3127 3128 3129 3130 3130 3130 3130 3131 3131 3131 3130 3130 3130 3129 3128 3128 3127 3126 3124 3123 3121 3119
3026 3027 3028 3030 3032 3034 3035 3036 3038 3040 3042 3044 3047 3050 3053 3055 3055 3057 3058 3059 3061 3063 3064 3064 3065 3066 3067 3068 3069 3070 3071 3072 3074 3077 3079 3080 3082 3085 3088 3090 3093 3094 3095 3097 3100 3103 3106 3108 3111 3113 3116 3118 3120 3121 3121 3121 3121 3121 3121 3121 3121 3122 3122 3123 3124 3125 3126 3127 3127 3128 3128 3128 3128 3128 3128 3128 3128 3127 3126 3126 3125 3124 3123 3121 3119 3118 3116
3025 3026 3027 3029 3031 3032 3033 3035 3036 3038 3040 3043 3045 3048 3050 3052 3054 3056 3058 3059 3060 3061 3062 3063 3063 3064 3066 3067 3067 3068 3070 3071 3073 3075 3077 3079 3082 3085 3087 3088 3090 3092 3094 3097 3100 3102 3105 3107 3110 3113 3116 3117 3119 3119 3120 3119 3119 3119 3119 3119 3119 3120 3121 3122 3123 3124 3125 3125 3125 3125 3125 3125 3126 3126 3126 3125 3125 3125 3124 3123 3122 3121 3119 3118 3116 3114 3112
3023 3025 3027 3028 3030 3032 3032 3032 3034 3035 3038 3040 3042 3045 3047 3050 3053 3055 3057 3058 3059 3059 3060 3062 3062 3063 3064 3065 3066 3067 3068 3070 3072 3074 3076 3079 3081 3083 3085 3087 3089 3090 3092 3095 3098 3102 3105 3107 3110 3112 3114 3115 3116 3117 3117 3117 3117 3117 3117 3117 3118 3118 3119 3121 3122 3122 3123 3123 3123 3123 3123 3123 3123 3123 3123 3123 3123 3122 3121 3120 3119 3117 3116 3114 3113 3111 3109
3022 3024 3026 3028 3029 3030 3029 3028 3030 3033 3036 3038 3041 3043 3046 3048 3051 3053 3055 3056 3058 3058 3059 3060 3061 3062 3063 3064 3065 3066 3066 3068 3070 3073 3076 3079 3081 3083 3085 3086 3088 3090 3092 3095 3099 3102 3104 3106 3108 3110 3111 3112 3113 3113 3113 3113 3114 3114 3115 3115 3116 3117 3118 3119 3120 3121 3121 3121 3121 3121 3121 3121 3121 3121 3121 3120 3120 3119 3118 3117 3116 3114 3113 3111 3110 3108 3106
3020 3023 3025 3027 3028 3027 3024 3025 3028 3031 3033 3036 3039 3041 3043 3046 3049 3051 3053 3055 3056 3057 3058 3059 3061 3061 3062 3062 3064 3065 3066 3067 3069 3072 3076 3078 3080 3083 3084 3086 3089 3093 3095 3096 3099 3101 3103 3105 3106 3107 3107 3108 3108 3108 3109 3110 3111 3111 3112 3113 3114 3116 3117 3118 3118 3119 3119 3119 3119 3119 3119 3119 3119 3119 3118 3118 3117 3117 3115 3114 3113 3111 3110 3108 3107 3105 3103
3020 3022 3024 3026 3025 3023 3022 3024 3026 3028 3031 3034 3037 3039 3041 3044 3047 3049 3051 3053 3054 3055 3056 3058 3059 3060 3060 3060 3062 3063 3065 3067 3069 3072 3074 3077 3079 3081 3084 3087 3091 3093 3095 3096 3098 3099 3101 3102 3102 3102 3103 3103 3104 3105 3106 3107 3108 3109 3110 3112 3113 3115 3116 3116 3117 3117 3117 3117 3117 3117 3117 3117 3117 3116 3116 3115 3115 3114 3112 3111 3110 3109 3107 3106 3104 3103 3101
3019 3021 3022 3022 3021 3021 3021 3022 3023 3025 3029 3031 3034 3037 3039 3041 3044 3047 3050 3051 3051 3053 3054 3055 3057 3057 3058 3059 3061 3062 3064 3066 3069 3071 3074 3076 3079 3081 3084 3087 3090 3092 3093 3095 3096 3097 3098 3098 3099 3099 3099 3100 3102 3103 3105 3106 3107 3108 3109 3111 3112 3113 3114 3114 3115 3115 3115 3115 3115 3115 3115 3115 3114 3114 3114 3113 3112 3111 3110 3109 3108 3106 3105 3104 3102 3101 3100
3019 3020 3020 3020 3021 3021 3021 3021 3022 3024 3027 3029 3033 3035 3037 3040 3042 3045 3047 3048 3049 3051 3052 3054 3055 3056 3056 3057 3058 3061 3063 3066 3069 3072 3075 3077 3079 3081 3084 3086 3088 3090 3092 3093 3094 3095 3095 3096 3096 3097 3098 3099 3101 3102 3103 3105 3106 3107 3108 3109 3110 3111 3112 3112 3113 3113 3113 3113 3113 3113 3113 3112 3112 3112 3111 3110 3110 3109 3108 3107 3106 3105 3104 3103 3101 3100 3099
3018 3018 3018 3019 3020 3020 3020 3021 3021 3023 3026 3028 3032 3034 3035 3037 3039 3042 3044 3046 3047 3049 3050 3052 3053 3054 3055 3056 3057 3059 3062 3064 3067 3070 3073 3076 3079 3081 3083 3084 3086 3088 3089 3091 3092 3093 3093 3094 3095 3096 3097 3099 3100 3101 3103 3104 3105 3106 3107 3108 3109 3110 3110 3110 3111 3111 3111 3111 3111 3111 3110 3110 3110 3110 3109 3108 3108 3107 3106 3105 3105 3104 3103 3102 3101 3100 3099
3018 3018 3017 3017 3018 3019 3020 3021 3021 3022 3025 3027 3031 3033 3033 3034 3036 3039 3042 3044 3046 3048 3049 3050 3052 3053 3054 3055 3056 3057 3060 3062 3065 3067 3070 3074 3077 3080 3081 3083 3084 3086 3087 3089 3090 3090 3091 3093 3094 3095 3096 3098 3099 3100 3102 3103 3104 3105 3106 3107 3107 3108 3108 3109 3109 3109 3109 3109 3109 3109 3109 3108 3108 3108 3107 3107 3106 3106 3105 3104 3104 3103 3103 3102 3101 3100 3099
3016 3017 3016 3017 3018 3019 3020 3020 3021 3022 3024 3027 3030 3031 3030 3031 3034 3037 3039 3042 3044 3046 3048 3049 3051 3052 3054 3054 3055 3057 3058 3061 3064 3066 3070 3073 3075 3077 3079 3081 3083 3084 3086 3087 3088 3089 3090 3091 3092 3094 3095 3097 3098 3099 3100 3102 3103 3104 3105 3105 3106 3106 3106 3106 3107 3107 3107 3108 3107 3107 3107 3107 3107 3106 3106 3106 3105 3105 3105 3104 3104 3103 3103 3102 3101 3100 3098
3015 3016 3016 3017 3018 3018 3020 3020 3021 3022 3024 3026 3027 3028 3027 3030 3033 3036 3038 3041 3042 3044 3047 3048 3050 3052 3053 3054 3055 3056 3057 3059 3062 3066 3070 3073 3075 3077 3079 3080 3082 3083 3084 3085 3086 3088 3089 3089 3091 3092 3094 3095 3097 3098 3099 3100 3101 3102 3103 3104 3104 3104 3104 3105 3106 3106 3107 3107 3106 3106 3106 3106 3106 3106 3106 3105 3105 3105 3105 3105 3104 3103 3103 3102 3101 3100 3098
3014 3016 3016 3017 3017 3018 3020 3021 3021 3022 3023 3024 3025 3026 3027 3029 3031 3033 3036 3038 3040 3042 3045 3047 3048 3050 3051 3053 3054 3056 3057 3058 3060 3063 3067 3070 3072 3074 3076 3078 3080 3081 3083 3084 3085 3086 3087 3088 3090 3091 3093 3094 3095 3097 3098 3099 3100 3101 3102 3102 3102 3102 3103 3104 3105 3105 3105 3105 3105 3105 3105 3105 3105 3105 3105 3105 3105 3105 3105 3105 3104 3103 3103 3102 3101 3100 3098
3013 3015 3016 3016 3016 3017 3019 3020 3021 3022 3023 3024 3024 3025 3026 3027 3028 3031 3033 3035 3038 3040 3042 3044 3046 3047 3049 3051 3053 3055 3057 3058 3059 3062 3065 3067 3070 3072 3074 3076 3078 3080 3082 3083 3084 3085 3086 3088 3089 3091 3092 3093 3094 3096 3097 3098 3099 3100 3100 3100 3101 3101 3102 3103 3103 3103 3104 3104 3104 3104 3104 3105 3105 3105 3106 3106 3106 3106 3105 3105 3104 3104 3103 3102 3101 3100 3098
3012 3013 3014 3014 3016 3017 3018 3019 3021 3022 3023 3023 3024 3025 3026 3026 3027 3029 3032 3033 3036 3038 3039 3041 3043 3045 3047 3049 3051 3053 3055 3057 3059 3061 3064 3066 3069 3071 3073 3075 3077 3079 3081 3082 3083 3085 3086 3088 3089 3090 3091 3092 3094 3095 3096 3097 3098 3099 3099 3099 3100 3100 3101 3101 3102 3102 3103 3103 3103 3104 3104 3105 3105 3106 3106 3106 3106 3106 3105 3105 3105 3104 3103 3102 3101 3100 3098
3009 3011 3012 3013 3015 3017 3017 3019 3020 3021 3022 3023 3024 3024 3026 3026 3027 3029 3030 3031 3033 3035 3036 3038 3041 3042 3045 3047 3049 3051 3054 3055 3057 3060 3063 3066 3068 3070 3072 3074 3076 3078 3080 3081 3082 3084 3085 3087 3088 3089 3090 3092 3093 3094 3096 3096 3097 3097 3097 3098 3099 3099 3100 3100 3101 3102 3102 3103 3103 3104 3105 3105 3106 3106 3106 3106 3106 3106 3105 3105 3105 3104 3103 3102 3101 3100 3098
3009 3010 3012 3013 3014 3016 3017 3018 3019 3020 3021 3022 3023 3024 3024 3025 3026 3027 3028 3030 3031 3033 3034 3036 3038 3040 3043 3046 3047 3050 3052 3054 3057 3059 3062 3065 3067 3069 3071 3073 3075 3077 3079 3080 3081 3083 3085 3086 3087 3089 3090 3091 3093 3094 3095 3095 3096 3096 3096 3097 3098 3098 3099 3100 3100 3101 3102 3103 3103 3104 3105 3106 3106 3106 3106 3106 3106 3106 3106 3105 3105 3104 3103 3102 3101 3100 3098
3008 3009 3010 3012 3013 3014 3016 3017 3018 3019 3020 3021 3022 3023 3023 3024 3025 3026 3027 3028 3029 3031 3032 3034 3036 3038 3042 3044 3046 3048 3051 3053 3055 3058 3061 3063 3065 3068 3070 3072 3074 3076 3078 3079 3081 3083 3084 3086 3087 3089 3090 3091 3092 3093 3094 3094 3094 3095 3096 3096 3097 3098 3098 3099 3100 3101 3102 3103 3104 3105 3105 3106 3106 3106 3106 3106 3106 3106 3106 3105 3104 3104 3103 3102 3101 3100 3099
3007 3008 3009 3011 3012 3013 3015 3016 3016 3017 3019 3020 3021 3021 3022 3023 3024 3024 3025 3026 3027 3028 3030 3032 3034 3037 3040 3043 3045 3047 3049 3052 3054 3057 3060 3062 3064 3067 3069 3071 3073 3075 3077 3079 3080 3082 3084 3086 3087 3088 3090 3091 3092 3092 3093 3093 3093 3094 3095 3095 3096 3097 3098 3099 3100 3102 3103 3103 3104 3105 3106 3106 3106 3106 3106 3106 3106 3106 3105 3105 3104 3103 3103 3102 3102 3100 3099
3006 3007 3008 3010 3011 3013 3014 3015 3015 3016 3017 3018 3019 3020 3021 3022 3023 3023 3024 3024 3025 3027 3028 3030 3032 3035 3038 3041 3043 3045 3047 3050 3053 3056 3059 3061 3064 3066 3068 3070 3072 3074 3076 3078 3080 3081 3083 3085 3086 3088 3089 3090 3090 3091 3091 3092 3093 3093 3094 3095 3096 3097 3098 3099 3101 3102 3103 3104 3105 3105 3106 3106 3106 3106 3106 3106 3106 3106 3105 3105 3104 3104 3103 3103 3102 3101 3099
3004 3006 3007 3009 3010 3011 3013 3013 3014 3015 3016 3017 3018 3019 3020 3021 3021 3022 3022 3023 3023 3025 3026 3028 3030 3033 3036 3039 3042 3044 3047 3049 3052 3055 3057 3060 3063 3065 3067 3069 3071 3073 3075 3077 3079 3081 3083 3084 3086 3087 3088 3089 3089 3089 3090 3091 3092 3093 3093 3095 3096 3097 3098 3100 3101 3102 3103 3104 3105 3105 3106 3106 3106 3106 3106 3106 3106 3105 3105 3105 3104 3104 3103 3103 3102 3101 3100
3003 3004 3005 3007 3009 3010 3011 3012 3013 3014 3015 3016 3016 3018 3018 3019 3020 3021 3021 3022 3022 3023 3024 3026 3028 3032 3035 3038 3040 3043 3046 3049 3051 3054 3057 3059 3062 3064 3066 3068 3070 3072 3074 3076 3078 3080 3082 3083 3085 3086 3087 3087 3087 3088 3089 3090 3091 3092 3093 3094 3096 3097 3099 3100 3101 3103 3103 3104 3105 3105 3106 3106 3106 3106 3106 3106 3106 3105 3105 3105 3104 3104 3103 3103 3102 3101 3100
3001 3003 3005 3006 3008 3009 3010 3011 3012 3013 3014 3014 3015 3016 3017 3018 3019 3020 3021 3022 3023 3023 3024 3025 3027 3030 3034 3037 3039 3042 3045 3048 3051 3055 3057 3060 3062 3064 3066 3068 3070 3072 3074 3076 3078 3079 3081 3082 3084 3085 3085 3085 3086 3087 3088 3089 3090 3092 3093 3094 3096 3098 3099 3100 3102 3103 3103 3104 3105 3105 3105 3105 3106 3106 3106 3106 3106 3106 3105 3105 3104 3104 3103 3103 3102 3101 3100
3001 3002 3004 3005 3007 3008 3009 3010 3011 3012 3012 3013 3014 3015 3016 3017 3018 3019 3020 3021 3022 3024 3025 3026 3027 3029 3033 3036 3039 3041 3044 3047 3050 3053 3056 3058 3061 3063 3066 3068 3070 3072 3074 3075 3077 3079 3080 3081 3083 3083 3083 3084 3085 3086 3087 3089 3090 3091 3093 3094 3096 3098 3099 3101 3102 3103 3103 3104 3104 3105 3105 3105 3106 3106 3106 3106 3106 3106 3105 3105 3105 3104 3103 3102 3102 3101 3100
3001 3002 3003 3005 3006 3007 3008 3009 3010 3010 3011 3012 3012 3013 3014 3016 3017 3018 3019 3020 3021 3023 3024 3026 3027 3029 3032 3035 3038 3039 3042 3045 3049 3052 3055 3057 3060 3063 3065 3068 3070 3071 3073 3074 3076 3078 3079 3080 3081 3082 3082 3083 3084 3086 3087 3088 3090 3091 3093 3095 3096 3098 3099 3100 3101 3102 3103 3104 3104 3105 3105 3105 3106 3106 3106 3106 3106 3106 3105 3105 3104 3104 3103 3103 3102 3101 3100
3000 3001 3002 3004 3005 3006 3007 3008 3008 3009 3010 3010 3011 3012 3013 3014 3016 3017 3019 3020 3021 3022 3023 3025 3027 3028 3030 3034 3037 3039 3041 3043 3046 3050 3053 3056 3059 3062 3065 3067 3069 3071 3072 3074 3075 3077 3078 3079 3080 3081 3081 3082 3084 3085 3087 3088 3090 3091 3093 3095 3096 3098 3099 3100 3101 3102 3103 3103 3104 3105 3105 3105 3106 3106 3106 3106 3106 3106 3105 3105 3105 3104 3103 3103 3102 3101 3100
2999 3000 3001 3002 3003 3005 3005 3006 3007 3008 3009 3009 3010 3011 3012 3013 3015 3017 3018 3019 3020 3021 3023 3025 3027 3029 3031 3033 3036 3038 3041 3044 3046 3048 3051 3055 3058 3061 3064 3066 3068 3070 3071 3073 3074 3075 3076 3078 3079 3080 3081 3082 3083 3085 3086 3088 3090 3092 3093 3095 3096 3098 3099 3100 3101 3102 3103 3103 3104 3105 3105 3105 3106 3106 3106 3106 3106 3106 3105 3105 3105 3104 3104 3103 3102 3101 3101
2998 2999 3000 3001 3002 3003 3004 3005 3006 3007 3008 3008 3009 3010 3011 3012 3014 3015 3017 3018 3020 3021 3022 3024 3026 3029 3032 3034 3035 3036 3040 3044 3047 3048 3051 3054 3057 3060 3062 3064 3066 3068 3070 3072 3073 3074 3075 3077 3078 3079 3080 3081 3083 3085 3086 3088 3090 3092 3093 3095 3096 3098 3099 3100 3101 3102 3103 3103 3104 3104 3105 3105 3106 3106 3106 3106 3106 3106 3106 3105 3105 3104 3104 3103 3103 3102 3101
2997 2998 2999 3000 3001 3002 3003 3004 3005 3006 3006 3007 3008 3009 3010 3011 3013 3014 3016 3018 3019 3020 3022 3024 3026 3028 3031 3033 3035 3037 3040 3043 3046 3048 3050 3053 3056 3059 3061 3063 3065 3067 3069 3071 3072 3073 3075 3076 3077 3078 3080 3081 3083 3085 3086 3088 3090 3091 3093 3095 3096 3097 3098 3100 3101 3102 3103 3103 3104 3104 3105 3105 3106 3106 3106 3106 3106 3106 3106 3105 3105 3105 3104 3104 3103 3102 3101
2996 2997 2998 2999 3000 3000 3001 3002 3003 3004 3005 3006 3007 3008 3009 3010 3012 3014 3015 3017 3018 3020 3022 3024 3026 3027 3029 3031 3034 3037 3040 3043 3046 3048 3050 3052 3055 3057 3060 3062 3065 3067 3069 3070 3071 3072 3074 3075 3076 3078 3079 3081 3083 3084 3086 3088 3090 3091 3093 3094 3096 3097 3098 3099 3100 3101 3102 3103 3104 3104 3105 3105 3106 3106 3106 3106 3106 3106 3106 3105 3105 3105 3104 3104 3103 3102 3102
2995 2996 2997 2997 2998 2999 3000 3001 3001 3002 3003 3004 3005 3006 3008 3009 3011 3013 3015 3016 3018 3019 3022 3024 3026 3027 3028 3030 3033 3036 3040 3043 3046 3047 3049 3052 3054 3057 3059 3062 3065 3067 3068 3069 3070 3071 3073 3074 3075 3077 3079 3081 3082 3084 3086 3088 3090 3091 3093 3094 3096 3097 3098 3099 3100 3101 3102 3103 3103 3104 3105 3105 3105 3105 3106 3106 3106 3105 3105 3105 3105 3104 3104 3103 3103 3102 3102
2994 2995 2995 2996 2997 2997 2998 2999 3000 3001 3002 3002 3003 3004 3006 3008 3010 3012 3014 3015 3017 3019 3021 3024 3026 3027 3028 3030 3032 3035 3039 3042 3045 3047 3049 3051 3054 3056 3059 3061 3063 3065 3067 3068 3069 3070 3072 3073 3075 3076 3078 3080 3082 3084 3086 3088 3090 3091 3093 3094 3095 3097 3098 3099 3100 3101 3102 3102 3103 3104 3104 3104 3105 3105 3105 3105 3105 3105 3105 3104 3104 3104 3103 3103 3102 3102 3101
2994 2994 2995 2995 2996 2996 2997 2998 2999 2999 3000 3000 3001 3002 3004 3006 3008 3010 3012 3015 3017 3019 3021 3023 3025 3027 3029 3030 3033 3035 3038 3041 3043 3045 3048 3051 3053 3055 3057 3060 3062 3064 3065 3066 3068 3069 3071 3072 3074 3076 3078 3080 3082 3084 3086 3088 3089 3091 3092 3094 3095 3096 3098 3099 3100 3100 3101 3102 3103 3103 3104 3104 3104 3104 3104 3104 3104 3104 3104 3104 3104 3103 3103 3102 3102 3101 3101
2993 2993 2994 2994 2994 2995 2996 2997 2997 2998 2998 2999 3000 3001 3003 3005 3007 3009 3011 3014 3017 3019 3021 3023 3025 3027 3029 3031 3034 3036 3039 3041 3044 3046 3048 3050 3052 3054 3056 3059 3061 3062 3064 3065 3067 3068 3070 3072 3073 3075 3077 3079 3081 3083 3085 3087 3089 3090 3092 3093 3095 3096 3097 3098 3099 3100 3101 3102 3102 3103 3103 3103 3104 3104 3104 3104 3104 3103 3103 3103 3103 3102 3102 3102 3101 3101 3100
2992 2993 2993 2993 2994 2994 2995 2996 2996 2997 2998 2998 2999 3001 3002 3004 3006 3008 3011 3013 3016 3018 3020 3022 3025 3026 3029 3031 3034 3037 3039 3041 3044 3046 3047 3049 3052 3054 3056 3058 3060 3061 3062 3064 3066 3067 3069 3071 3072 3075 3077 3079 3081 3083 3085 3087 3088 3090 3091 3093 3094 3096 3097 3098 3099 3099 3100 3101 3101 3102 3102 3102 3103 3103 3103 3103 3103 3102 3102 3102 3102 3101 3101 3100 3100 3099 3099
2991 2992 2992 2993 2993 2994 2995 2995 2996 2996 2997 2998 2999 3001 3002 3004 3006 3008 3010 3013 3015 3017 3019 3022 3024 3026 3028 3031 3034 3036 3039 3041 3043 3045 3047 3049 3051 3054 3056 3058 3059 3060 3061 3063 3065 3066 3068 3070 3072 3074 3076 3078 3080 3082 3084 3086 3088 3089 3091 3092 3094 3095 3096 3097 3098 3099 3099 3100 3100 3101 3101 3101 3102 3102 3102 3102 3102 3101 3101 3101 3101 3100 3100 3099 3099 3098 3098
2991 2991 2992 2993 2994 2994 2995 2995 2996 2996 2997 2998 2999 3001 3002 3004 3006 3008 3010 3013 3015 3017 3019 3021 3024 3026 3028 3031 3033 3036 3038 3040 3042 3045 3047 3049 3051 3054 3056 3057 3058 3059 3061 3063 3064 3066 3068 3070 3072 3073 3075 3077 3079 3081 3083 3085 3087 3089 3090 3091 3093 3094 3095 3096 3097 3097 3098 3099 3099 3100 3100 3100 3100 3100 3100 3100 3100 3100 3100 3100 3100 3099 3099 3098 3098 3097 3096
2990 2991 2991 2992 2993 2994 2995 2995 2996 2997 2998 2999 3000 3001 3003 3004 3006 3008 3010 3012 3015 3017 3019 3021 3023 3026 3028 3030 3033 3035 3037 3040 3042 3044 3047 3049 3051 3054 3055 3056 3057 3059 3060 3062 3064 3065 3067 3069 3071 3073 3075 3076 3079 3081 3083 3085 3086 3088 3089 3090 3092 3093 3094 3095 3096 3096 3097 3097 3098 3098 3099 3099 3099 3099 3099 3099 3099 3099 3099 3098 3098 3098 3097 3097 3096 3096 3095
2989 2990 2991 2991 2992 2993 2994 2995 2996 2997 2998 2999 3001 3003 3004 3005 3007 3009 3010 3012 3015 3017 3019 3022 3023 3025 3028 3030 3033 3035 3037 3039 3042 3044 3046 3049 3051 3052 3053 3055 3056 3058 3059 3061 3063 3064 3066 3068 3070 3072 3074 3076 3078 3080 3082 3084 3085 3087 3088 3089 3090 3092 3093 3094 3095 3095 3096 3096 3097 3097 3097 3097 3097 3098 3098 3098 3097 3097 3097 3097 3096 3096 3096 3095 3095 3094 3093
2989 2990 2990 2991 2992 2993 2994 2995 2996 2997 2998 2999 3001 3003 3005 3007 3008 3010 3011 3013 3015 3017 3020 3022 3024 3026 3028 3031 3033 3035 3038 3040 3042 3044 3046 3048 3050 3051 3052 3054 3055 3057 3058 3059 3061 3063 3065 3067 3069 3071 3073 3075 3077 3079 3081 3083 3084 3085 3087 3088 3089 3090 3091 3092 3093 3094 3094 3095 3095 3095 3096 3096 3096 3096 3096 3096 3096 3095 3095 3095 3094 3094 3094 3093 3093 3092 3092
2988 2989 2990 2991 2991 2992 2993 2994 2995 2996 2998 2999 3001 3002 3005 3007 3009 3011 3012 3014 3016 3018 3020 3022 3025 3027 3029 3031 3033 3036 3038 3040 3042 3044 3046 3048 3050 3051 3053 3054 3055 3056 3057 3059 3060 3062 3064 3066 3068 3070 3072 3074 3076 3078 3080 3081 3083 3084 3085 3087 3088 3089 3090 3091 3092 3092 3093 3093 3093 3094 3094 3094 3094 3094 3094 3094 3094 3093 3093 3093 3092 3092 3091 3091 3090 3090 3089
2987 2988 2989 2990 2990 2991 2992 2993 2994 2996 2997 2999 3000 3002 3004 3006 3009 3011 3012 3014 3016 3018 3020 3022 3024 3026 3029 3031 3033 3035 3037 3040 3041 3043 3045 3047 3049 3050 3051 3053 3054 3055 3056 3058 3059 3061 3063 3065 3067 3069 3071 3073 3075 3077 3079 3080 3081 3083 3084 3085 3086 3087 3088 3089 3090 3090 3091 3091 3092 3092 3092 3092 3092 3092 3092 3092 3092 3091 3091 3091 3090 3090 3089 3089 3088 3087 3087
2987 2987 2988 2989 2990 2990 2991 2993 2994 2995 2997 2998 3000 3001 3003 3006 3008 3010 3012 3014 3016 3018 3020 3021 3023 3025 3028 3030 3032 3035 3037 3039 3040 3042 3044 3045 3046 3048 3049 3051 3052 3054 3055 3057 3058 3060 3062 3064 3066 3068 3070 3072 3074 3075 3077 3078 3080 3081 3083 3084 3085 3086 3087 3087 3088 3088 3089 3089 3089 3090 3090 3090 3090 3090 3090 3090 3089 3089 3088 3088 3088 3087 3087 3086 3085 3085 3084
2986 2986 2987 2988 2989 2990 2991 2992 2993 2994 2996 2998 2999 3001 3003 3005 3007 3009 3011 3013 3015 3018 3020 3021 3023 3025 3027 3030 3032 3035 3037 3039 3040 3042 3043 3045 3046 3048 3049 3050 3052 3053 3054 3055 3057 3059 3061 3063 3065 3067 3069 3071 3072 3074 3075 3077 3078 3080 3081 3082 3083 3084 3085 3085 3086 3086 3087 3087 3087 3087 3087 3087 3088 3087 3087 3087 3087 3086 3086 3085 3085 3084 3084 3083 3082 3082 3081
2985 2986 2986 2987 2988 2989 2990 2991 2992 2993 2995 2997 2998 3000 3002 3004 3006 3009 3011 3013 3015 3017 3020 3022 3023 3025 3028 3030 3032 3033 3036 3038 3039 3041 3043 3044 3046 3047 3048 3049 3051 3052 3053 3055 3056 3058 3060 3061 3064 3066 3068 3069 3071 3073 3074 3076 3077 3078 3079 3080 3081 3082 3083 3083 3084 3084 3084 3085 3085 3085 3085 3085 3085 3085 3085 3084 3084 3084 3083 3082 3082 3081 3081 3080 3079 3079 3078
2985 2985 2986 2987 2987 2988 2989 2990 2991 2992 2994 2995 2997 2999 3001 3003 3005 3008 3011 3013 3015 3017 3019 3022 3023 3025 3027 3029 3031 3032 3034 3036 3037 3039 3041 3042 3043 3045 3046 3047 3049 3050 3052 3053 3055 3056 3058 3060 3062 3064 3066 3068 3070 3072 3073 3074 3076 3077 3078 3079 3080 3080 3081 3081 3081 3082 3082 3082 3082 3083 3083 3082 3082 3082 3082 3081 3081 3081 3080 3079 3079 3078 3077 3077 3076 3075 3074
2985 2985 2986 2986 2987 2988 2989 2990 2991 2992 2993 2995 2996 2999 3001 3003 3005 3007 3010 3012 3014 3016 3018 3020 3022 3024 3026 3029 3030 3032 3034 3035 3037 3038 3040 3041 3042 3044 3045 3047 3048 3049 3050 3052 3054 3055 3057 3059 3061 3063 3065 3067 3069 3070 3072 3073 3074 3075 3076 3077 3078 3078 3079 3079 3079 3080 3080 3080 3080 3080 3080 3080 3080 3079 3079 3078 3078 3077 3076 3076 3075 3074 3074 3073 3072 3071 3070
2985 2985 2985 2986 2987 2988 2989 2990 2992 2993 2993 2994 2996 2998 3000 3002 3004 3007 3009 3011 3012 3015 3017 3019 3021 3023 3026 3028 3029 3031 3033 3035 3037 3038 3039 3040 3042 3043 3044 3045 3047 3048 3049 3050 3052 3054 3056 3058 3060 3062 3064 3066 3067 3069 3070 3071 3072 3073 3074 3075 3075 3076 3076 3076 3077 3077 3077 3077 3077 3077 3077 3076 3076 3076 3075 3075 3074 3074 3073 3072 3072 3071 3070 3069 3068 3067 3066
2985 2985 2986 2987 2988 2989 2990 2991 2992 2993 2994 2995 2996 2997 2999 3001 3004 3006 3007 3009 3011 3014 3016 3018 3020 3022 3024 3026 3028 3029 3031 3033 3035 3036 3038 3039 3040 3041 3042 3044 3045 3047 3048 3050 3051 3053 3055 3057 3058 3060 3062 3064 3066 3067 3069 3070 3070 3071 3072 3072 3073 3073 3074 3074 3074 3074 3074 3074 3074 3073 3073 3073 3073 3072 3072 3072 3071 3070 3070 3069 3068 3067 3066 3065 3064 3063 3062
2986 2986 2986 2987 2988 2989 2990 2991 2992 2993 2994 2995 2996 2998 3000 3002 3003 3005 3007 3009 3011 3013 3015 3017 3020 3022 3023 3025 3026 3028 3030 3031 3033 3034 3036 3038 3039 3040 3041 3042 3044 3045 3047 3049 3050 3052 3054 3056 3058 3059 3061 3063 3064 3066 3067 3067 3068 3069 3069 3070 3070 3071 3071 3071 3071 3071 3071 3071 3070 3070 3070 3070 3069 3069 3068 3068 3067 3067 3066 3065 3064 3063 3062 3061 3060 3059 3058
2986 2986 2987 2987 2988 2989 2990 2991 2992 2993 2994 2995 2996 2998 2999 3001 3003 3004 3006 3008 3010 3012 3015 3017 3019 3021 3023 3025 3026 3027 3029 3030 3032 3034 3035 3036 3037 3039 3040 3041 3043 3044 3046 3048 3049 3051 3053 3055 3056 3058 3060 3061 3063 3064 3065 3065 3066 3066 3067 3067 3068 3068 3068 3068 3068 3067 3067 3067 3067 3067 3066 3066 3066 3065 3065 3064 3063 3063 3062 3061 3060 3059 3057 3056 3055 3054 3053